| time (UTC) | temp F | wind direction | speed MPH | gust MPH | rain 1hr in | rain 24hr in | rain mn in | humidity % | barometer mb |
| 20260507104540 | 52 | 350 | 0.0 | 3.0 | 0.00 | 0.00 | 0.00 | 77 | 1020.7 |
| 20260507103049 | 53 | 0 | 0.0 | 3.0 | 0.00 | 0.00 | 0.00 | 78 | 1020.8 |
| 20260507101546 | 53 | 5 | 0.0 | 4.0 | 0.00 | 0.00 | 0.00 | 77 | 1020.8 |
| 20260507100044 | 53 | 0 | 0.0 | 1.0 | 0.00 | 0.00 | 0.00 | 78 | 1020.8 |
| 20260507094557 | 53 | 0 | 0.0 | 3.0 | 0.00 | 0.00 | 0.00 | 77 | 1020.9 |
| 20260507093049 | 53 | 298 | 0.0 | 4.0 | 0.00 | 0.00 | 0.00 | 77 | 1021.1 |
| 20260507091546 | 53 | 242 | 0.0 | 2.0 | 0.00 | 0.00 | 0.00 | 77 | 1021.2 |
| 20260507090044 | 53 | 0 | 0.0 | 2.0 | 0.00 | 0.00 | 0.00 | 77 | 1021.3 |
| 20260507084548 | 53 | 0 | 0.0 | 4.0 | 0.00 | 0.00 | 0.00 | 78 | 1021.2 |
| 20260507083041 | 53 | 0 | 0.0 | 3.0 | 0.00 | 0.00 | 0.00 | 79 | 1021.3 |
| 20260507081542 | 54 | 0 | 0.0 | 4.0 | 0.00 | 0.00 | 0.00 | 79 | 1021.3 |
| 20260507080044 | 54 | 0 | 0.0 | 1.0 | 0.00 | 0.00 | 0.00 | 79 | 1021.4 |
| 20260507074548 | 54 | 0 | 0.0 | 3.0 | 0.00 | 0.00 | 0.00 | 78 | 1021.3 |
| 20260507073103 | 54 | 281 | 0.0 | 2.0 | 0.00 | 0.00 | 0.00 | 78 | 1021.1 |
| 20260507071542 | 54 | 0 | 0.0 | 2.0 | 0.00 | 0.00 | 0.00 | 79 | 1021.1 |
| 20260507070056 | 54 | 290 | 0.0 | 1.0 | 0.00 | 0.00 | 0.00 | 79 | 1021.0 |
| 20260507064553 | 54 | 0 | 0.0 | 3.0 | 0.00 | 0.00 | 0.00 | 78 | 1021.1 |
| 20260507063048 | 54 | 11 | 0.0 | 3.0 | 0.00 | 0.00 | 0.00 | 78 | 1021.0 |
| 20260507061545 | 54 | 0 | 1.0 | 7.0 | 0.00 | 0.00 | 0.00 | 78 | 1021.1 |
| 20260507060055 | 55 | 352 | 1.0 | 7.0 | 0.00 | 0.00 | 0.00 | 78 | 1021.0 |
| 20260507054550 | 55 | 294 | 0.0 | 5.0 | 0.00 | 0.00 | 0.00 | 77 | 1021.0 |
| 20260507053048 | 55 | 0 | 1.0 | 5.0 | 0.00 | 0.00 | 0.00 | 77 | 1021.0 |
| 20260507051540 | 56 | 360 | 1.0 | 7.0 | 0.00 | 0.00 | 0.00 | 77 | 1020.9 |
| 20260507050050 | 56 | 0 | 0.0 | 5.0 | 0.00 | 0.00 | 0.00 | 77 | 1020.9 |
| 20260507044559 | 56 | 0 | 2.0 | 8.0 | 0.00 | 0.00 | 0.00 | 76 | 1021.0 |
| 20260507043042 | 57 | 0 | 1.0 | 9.0 | 0.00 | 0.00 | 0.00 | 76 | 1020.8 |
| 20260507041545 | 57 | 300 | 1.0 | 5.0 | 0.00 | 0.00 | 0.00 | 75 | 1020.7 |
| 20260507040046 | 58 | 0 | 0.0 | 4.0 | 0.00 | 0.00 | 0.00 | 75 | 1020.4 |
| 20260507034545 | 58 | 291 | 1.0 | 6.0 | 0.00 | 0.00 | 0.00 | 75 | 1020.2 |
| 20260507033058 | 58 | 311 | 1.0 | 9.0 | 0.00 | 0.00 | 0.00 | 76 | 1020.1 |
| 20260507031558 | 59 | 14 | 0.0 | 8.0 | 0.00 | 0.00 | 0.00 | 75 | 1019.9 |
| 20260507030101 | 60 | 0 | 0.0 | 5.0 | 0.00 | 0.00 | 0.00 | 74 | 1019.8 |
| 20260507024601 | 61 | 332 | 1.0 | 9.0 | 0.00 | 0.00 | 0.00 | 73 | 1019.6 |
| 20260507023043 | 61 | 0 | 1.0 | 8.0 | 0.00 | 0.00 | 0.00 | 72 | 1019.5 |
| 20260507021550 | 62 | 317 | 2.0 | 10.0 | 0.00 | 0.00 | 0.00 | 70 | 1019.6 |
| 20260507020054 | 63 | 5 | 2.0 | 11.0 | 0.00 | 0.00 | 0.00 | 70 | 1019.6 |
| 20260507014549 | 64 | 344 | 2.0 | 8.0 | 0.00 | 0.00 | 0.00 | 70 | 1019.6 |
| 20260507013040 | 64 | 330 | 2.0 | 6.0 | 0.00 | 0.00 | 0.00 | 69 | 1019.6 |
| 20260507011547 | 65 | 5 | 2.0 | 8.0 | 0.00 | 0.00 | 0.00 | 68 | 1019.5 |
| 20260507010045 | 66 | 318 | 1.0 | 8.0 | 0.00 | 0.00 | 0.00 | 69 | 1019.5 |
| 20260507004552 | 66 | 355 | 1.0 | 7.0 | 0.00 | 0.00 | 0.00 | 68 | 1019.5 |
| 20260507003050 | 67 | 30 | 1.0 | 8.0 | 0.00 | 0.00 | 0.00 | 65 | 1019.4 |
| 20260507001551 | 67 | 259 | 2.0 | 9.0 | 0.00 | 0.00 | 0.00 | 65 | 1019.4 |
| 20260507000044 | 67 | 232 | 1.0 | 8.0 | 0.00 | 0.00 | 0.00 | 64 | 1019.4 |
| 20260506234552 | 68 | 0 | 2.0 | 7.0 | 0.00 | 0.00 | 0.00 | 63 | 1019.4 |
| 20260506233052 | 67 | 221 | 2.0 | 8.0 | 0.00 | 0.00 | 0.00 | 63 | 1019.4 |
| 20260506231553 | 68 | 251 | 1.0 | 9.0 | 0.00 | 0.00 | 0.00 | 64 | 1019.4 |
| 20260506230050 | 68 | 198 | 0.0 | 3.0 | 0.00 | 0.00 | 0.00 | 63 | 1019.6 |
| 20260506224549 | 66 | 206 | 1.0 | 9.0 | 0.00 | 0.00 | 0.00 | 66 | 1019.8 |
| 20260506223050 | 65 | 235 | 2.0 | 6.0 | 0.00 | 0.00 | 0.00 | 68 | 1019.9 |
| 20260506221539 | 66 | 321 | 1.0 | 11.0 | 0.00 | 0.00 | 0.00 | 68 | 1020.1 |
| 20260506220042 | 66 | 247 | 4.0 | 10.0 | 0.00 | 0.00 | 0.00 | 68 | 1020.0 |
| 20260506214547 | 64 | 248 | 3.0 | 10.0 | 0.00 | 0.00 | 0.00 | 70 | 1020.0 |
| 20260506213043 | 65 | 187 | 2.0 | 8.0 | 0.00 | 0.00 | 0.00 | 72 | 1020.2 |
| 20260506211541 | 64 | 110 | 2.0 | 8.0 | 0.00 | 0.00 | 0.00 | 72 | 1020.4 |
| 20260506210044 | 63 | 163 | 4.0 | 9.0 | 0.00 | 0.00 | 0.00 | 73 | 1020.5 |
| 20260506204541 | 62 | 180 | 2.0 | 7.0 | 0.00 | 0.00 | 0.00 | 75 | 1020.5 |
| 20260506203044 | 62 | 132 | 3.0 | 9.0 | 0.00 | 0.00 | 0.00 | 74 | 1020.4 |
| 20260506201542 | 61 | 182 | 1.0 | 6.0 | 0.00 | 0.00 | 0.00 | 76 | 1020.5 |
| 20260506200042 | 61 | 232 | 3.0 | 6.0 | 0.00 | 0.00 | 0.00 | 77 | 1020.8 |
| 20260506194549 | 61 | 208 | 0.0 | 8.0 | 0.00 | 0.00 | 0.00 | 77 | 1020.8 |
| 20260506193047 | 61 | 0 | 1.0 | 8.0 | 0.00 | 0.00 | 0.00 | 77 | 1020.8 |
| 20260506191545 | 61 | 0 | 1.0 | 4.0 | 0.00 | 0.00 | 0.00 | 77 | 1020.7 |
| 20260506190043 | 60 | 243 | 1.0 | 3.0 | 0.00 | 0.00 | 0.00 | 76 | 1020.7 |
| 20260506184552 | 59 | 0 | 2.0 | 7.0 | 0.00 | 0.00 | 0.00 | 81 | 1020.7 |
| 20260506183050 | 59 | 207 | 2.0 | 6.0 | 0.00 | 0.00 | 0.00 | 79 | 1020.8 |
| 20260506181549 | 58 | 221 | 2.0 | 6.0 | 0.00 | 0.00 | 0.00 | 82 | 1020.8 |
| 20260506180051 | 58 | 0 | 3.0 | 6.0 | 0.00 | 0.00 | 0.00 | 83 | 1020.8 |
| 20260506174548 | 57 | 195 | 3.0 | 7.0 | 0.00 | 0.00 | 0.00 | 84 | 1020.7 |
| 20260506173121 | 57 | 204 | 3.0 | 5.0 | 0.00 | 0.00 | 0.00 | 84 | 1020.5 |
| 20260506171548 | 57 | 259 | 0.0 | 4.0 | 0.00 | 0.00 | 0.00 | 84 | 1020.5 |
| 20260506170050 | 57 | 0 | 0.0 | 5.0 | 0.00 | 0.00 | 0.00 | 83 | 1020.5 |
| 20260506164555 | 57 | 165 | 1.0 | 3.0 | 0.00 | 0.00 | 0.00 | 83 | 1020.4 |
| 20260506163105 | 57 | 227 | 1.0 | 4.0 | 0.00 | 0.00 | 0.00 | 83 | 1020.3 |
| 20260506161626 | 57 | 0 | 0.0 | 6.0 | 0.00 | 0.00 | 0.00 | 83 | 1020.3 |
| 20260506160051 | 56 | 218 | 1.0 | 6.0 | 0.00 | 0.00 | 0.00 | 83 | 1020.1 |
| 20260506154553 | 56 | 68 | 2.0 | 4.0 | 0.00 | 0.00 | 0.00 | 84 | 1019.6 |
| 20260506153047 | 56 | 0 | 1.0 | 4.0 | 0.00 | 0.00 | 0.00 | 84 | 1020.5 |
| 20260506151542 | 56 | 355 | 0.0 | 3.0 | 0.00 | 0.00 | 0.00 | 85 | 1020.4 |
| 20260506150049 | 56 | 347 | 2.0 | 8.0 | 0.00 | 0.00 | 0.00 | 84 | 1020.4 |
| 20260506144543 | 56 | 0 | 0.0 | 1.0 | 0.00 | 0.00 | 0.00 | 85 | 1020.3 |
| 20260506143047 | 56 | 0 | 0.0 | 1.0 | 0.00 | 0.00 | 0.00 | 85 | 1019.7 |
| 20260506141550 | 56 | 84 | 0.0 | 2.0 | 0.00 | 0.00 | 0.00 | 85 | 1019.5 |
| 20260506140051 | 56 | 0 | 0.0 | 2.0 | 0.00 | 0.00 | 0.00 | 85 | 1019.5 |
| 20260506134544 | 56 | 0 | 0.0 | 2.0 | 0.00 | 0.00 | 0.00 | 85 | 1019.4 |
| 20260506133047 | 55 | 0 | 0.0 | 2.0 | 0.00 | 0.00 | 0.00 | 85 | 1019.3 |
| 20260506131550 | 55 | 84 | 1.0 | 3.0 | 0.00 | 0.00 | 0.00 | 85 | 1019.1 |
| 20260506130108 | 55 | 0 | 0.0 | 2.0 | 0.00 | 0.00 | 0.00 | 84 | 1019.1 |
| 20260506124557 | 56 | 5 | 1.0 | 3.0 | 0.00 | 0.00 | 0.00 | 84 | 1018.9 |
| 20260506123051 | 56 | 9 | 0.0 | 3.0 | 0.00 | 0.00 | 0.00 | 84 | 1019.0 |
| 20260506121548 | 56 | 0 | 1.0 | 4.0 | 0.00 | 0.00 | 0.00 | 84 | 1019.0 |
| 20260506120101 | 56 | 19 | 1.0 | 5.0 | 0.00 | 0.00 | 0.00 | 83 | 1018.8 |
| 20260506114551 | 56 | 0 | 1.0 | 3.0 | 0.00 | 0.00 | 0.00 | 83 | 1018.7 |
| 20260506113055 | 56 | 336 | 0.0 | 2.0 | 0.00 | 0.00 | 0.00 | 83 | 1018.7 |
| 20260506111549 | 57 | 0 | 0.0 | 3.0 | 0.00 | 0.00 | 0.00 | 83 | 1018.5 |
| 20260506110101 | 57 | 0 | 0.0 | 1.0 | 0.00 | 0.00 | 0.00 | 83 | 1018.3 |